Volver al catálogo

STARLINK-36810

ActivoComunicacionesSSO
NORAD 67898·PAYLOAD·🇺🇸 United States

Lanzado Feb 21, 2026 desde Vandenberg Space Force Base

Loading…

Próximos Pases (próximas 24 horas)

TLE

ActualizadoSource: CelesTrak SupGP

Época: Sep 15, 2026, 04:19 UTC

1 67898C 26035V   26258.18034722  .00110080  00000+0  34167-2 0  2584
2 67898  97.2849 190.1027 0001923  99.1587  44.3906 15.33387264    12

Sigue STARLINK-36810 en tiempo real con AllMySat

Download on the App Store